Stations météo

Publicité
Lyon/Satolas, France (7481): Température de l'air & dewpoint: 17.02.2019 23:00:00 - 23.02.2019 23:00:00 (CET)Lyon/Satolas, France (7481): Température de l'air 5cm: 17.02.2019 23:00:00 - 23.02.2019 23:00:00 (CET)Lyon/Satolas, France (7481): Température de l'air -20cm & Température de l'air -100cm: 17.02.2019 23:00:00 - 23.02.2019 23:00:00 (CET)Lyon/Satolas, France (7481): Vitesse du vent & gusts: 17.02.2019 23:00:00 - 23.02.2019 23:00:00 (CET)Lyon/Satolas, France (7481): Direction du vent: 17.02.2019 23:00:00 - 23.02.2019 23:00:00 (CET)Lyon/Satolas, France (7481): reduced air pressure: 17.02.2019 23:00:00 - 23.02.2019 23:00:00 (CET)Lyon/Satolas, France (7481): visibility: 17.02.2019 23:00:00 - 23.02.2019 23:00:00 (CET)Lyon/Satolas, France (7481): Quantités de précipitations: 17.02.2019 23:00:00 - 23.02.2019 23:00:00 (CET)
Date & Time tt [°C] td [°C] tt 5cm [°C] tt -20cm [°C] tt -100cm [°C] ff [km/h] ff [knt] fx [km/h] fx [knt] dd ppp [hPa] vv [km] rr [mm]
23.02.2019 23:00:00 8,5 4,1 6,1 8,3 7,7 8 4 17 9 S 1030,8 8 0,0
23.02.2019 22:00:00 8,0 4,0 3,3 8,6 7,7 12 7 16 9 SSE 1030,6 9 0,0
23.02.2019 21:00:00 9,0 3,8 4,2 8,8 7,6 4 2 7 4 S 1030,0 15 0,0
23.02.2019 20:00:00 9,3 4,3 3,3 9,1 7,6 2 1 8 5 S 1030,1 15 0,0
23.02.2019 19:00:00 10,3 4,0 4,9 9,2 7,6 6 4 10 5 N 1030,0 15 0,0
23.02.2019 18:00:00 11,8 5,0 11,7 9,3 7,6 8 5 11 6 NNW 1029,3 15 0,0
23.02.2019 17:00:00 12,9 4,6 16,0 9,1 7,6 5 3 11 6 NNW 1029,0 15 0,0
23.02.2019 16:00:00 12,6 4,5 15,7 8,8 7,6 5 3 14 8 N 1029,4 15 0,0
23.02.2019 15:00:00 12,8 4,7 16,1 8,2 7,6 8 4 14 8 NNW 1029,2 15 0,0
23.02.2019 14:00:00 11,8 4,5 15,9 7,6 7,6 5 3 12 7 NNW 1029,8 12 0,0
23.02.2019 13:00:00 10,2 4,3 14,9 7,0 7,6 0 0 12 6 N 1030,7 10 0,0
23.02.2019 12:00:00 8,8 4,2 14,3 6,5 7,6 4 2 10 5 WNW 1031,5 9 0,0
23.02.2019 11:00:00 7,8 5,1 12,3 6,2 7,6 3 2 11 6 NNW 1031,6 8 0,0
23.02.2019 10:00:00 5,5 4,9 7,5 6,2 7,6 5 3 8 5 N 1031,7 6 0,0
23.02.2019 09:00:00 4,2 3,8 1,1 6,3 7,6 0 0 8 4 N 1031,5 1,2 0,0
23.02.2019 08:00:00 3,1 2,5 -1,5 6,5 7,6 0 0 5 3 N 1031,5 0,2 0,0
23.02.2019 07:00:00 3,0 2,4 -1,5 6,7 7,6 4 2 11 6 W 1031,3 0,2 0,0
23.02.2019 06:00:00 3,8 3,1 -1,1 6,9 7,6 4 2 5 3 SW 1031,0 2,8 0,0
23.02.2019 05:00:00 3,7 2,7 0,0 7,1 7,6 0 0 9 5 N 1031,3 4,8 0,0
23.02.2019 04:00:00 4,7 3,5 0,1 7,4 7,6 5 3 7 4 WSW 1031,3 6 0,0
23.02.2019 03:00:00 5,5 3,8 1,4 7,6 7,6 3 2 6 4 W 1031,2 8 0,0
23.02.2019 02:00:00 6,6 4,4 3,7 7,8 7,6 5 3 15 8 WNW 1031,6 11 0,0
23.02.2019 01:00:00 7,5 5,3 5,6 8,0 7,5 11 6 17 9 NNW 1031,4 13 0,0
23.02.2019 00:00:00 8,2 6,0 6,9 8,1 7,5 13 7 22 12 NNW 1031,1 13 0,0
22.02.2019 23:00:00 9,2 6,5 7,7 8,3 7,5 14 8 24 13 NNW 1030,9 17 0,0
22.02.2019 22:00:00 10,3 7,0 8,7 8,4 7,5 9 5 30 16 NNW 1030,7 20 0,0
22.02.2019 21:00:00 11,4 7,5 10,3 8,5 7,6 24 13 37 20 NNW 1030,1 30 0,0
22.02.2019 20:00:00 12,2 7,1 10,9 8,7 7,6 27 14 35 19 NNW 1030,3 35 0,0
22.02.2019 19:00:00 13,8 7,1 11,7 8,7 7,5 23 12 35 19 N 1030,3 50 0,0
22.02.2019 18:00:00 14,7 7,0 14,5 8,6 7,5 19 10 41 22 NNW 1029,7 50 0,0
22.02.2019 17:00:00 15,8 7,0 17,8 8,5 7,5 30 16 45 25 NNW 1029,4 40 0,0
22.02.2019 16:00:00 16,2 6,6 18,6 8,1 7,5 36 20 49 27 NNW 1029,7 12 0,0
22.02.2019 15:00:00 16,4 6,5 18,7 7,7 7,5 32 17 52 28 NNW 1029,8 35 0,0
22.02.2019 14:00:00 15,7 6,4 18,4 7,2 7,5 32 17 44 24 NNW 1030,2 25 0,0
22.02.2019 13:00:00 15,0 5,5 17,8 6,7 7,5 31 17 42 23 NNW 1030,7 25 0,0
22.02.2019 12:00:00 13,4 4,8 16,8 6,2 7,5 27 15 37 20 NNW 1031,6 20 0,0
22.02.2019 11:00:00 12,1 5,3 14,6 5,8 7,5 23 12 34 18 NNW 1032,2 7 0,0
22.02.2019 10:00:00 8,9 4,9 10,6 5,8 7,5 12 6 18 10 NNW 1032,7 9 0,0
22.02.2019 09:00:00 5,6 3,4 2,6 5,8 7,5 0 0 13 7 N 1033,2 6 0,0
22.02.2019 08:00:00 3,6 2,3 -0,1 6,0 7,5 8 5 19 10 NE 1032,8 4,5 0,0
22.02.2019 07:00:00 4,0 2,2 1,5 6,1 7,5 4 2 13 7 N 1032,2 6 0,0
22.02.2019 06:00:00 5,1 3,4 -0,2 6,3 7,5 3 2 12 7 N 1031,9 6 0,0
22.02.2019 05:00:00 4,0 2,2 -0,6 6,5 7,5 5 3 8 5 N 1032,1 7 0,0
22.02.2019 04:00:00 3,8 2,0 -0,7 6,7 7,4 2 1 5 3 NNW 1032,2 7 0,0
22.02.2019 03:00:00 4,5 2,5 -0,2 7,0 7,5 2 1 5 3 NNW 1032,4 5 0,0
22.02.2019 02:00:00 5,0 2,5 0,6 7,2 7,5 3 2 4 2 W 1032,2 6 0,0
22.02.2019 01:00:00 6,1 3,6 1,9 7,5 7,5 0 0 7 4 N 1032,4 8 0,0
22.02.2019 00:00:00 6,9 3,7 2,3 7,7 7,5 2 1 14 8 WNW 1032,0 8 0,0
21.02.2019 23:00:00 7,2 3,2 1,3 8,0 7,4 5 3 16 9 WNW 1031,6 10 0,0
21.02.2019 22:00:00 8,2 3,2 1,7 8,3 7,4 3 2 7 4 W 1031,1 15 0,0
21.02.2019 21:00:00 8,3 3,1 2,7 8,6 7,5 3 2 15 8 N 1030,6 20 0,0
21.02.2019 20:00:00 10,2 3,2 3,2 8,8 7,4 7 4 12 6 NNW 1030,1 20 0,0
21.02.2019 19:00:00 11,4 3,2 5,8 9,0 7,5 9 5 16 9 N 1029,7 20 0,0
21.02.2019 18:00:00 14,4 3,2 11,1 9,0 7,4 5 3 10 6 NNE 1028,7 20 0,0
21.02.2019 17:00:00 15,6 4,0 19,4 8,7 7,4 6 4 10 6 N 1028,5 17 0,0
21.02.2019 16:00:00 15,4 3,8 19,6 8,3 7,4 5 3 14 8 N 1028,6 15 0,0
21.02.2019 15:00:00 14,8 3,6 19,0 7,8 7,4 5 3 12 7 N 1028,8 15 0,0
21.02.2019 14:00:00 14,4 3,5 18,1 7,1 7,4 4 2 8 5 NNW 1029,0 12 0,0
21.02.2019 13:00:00 14,8 3,0 17,5 6,5 7,4 2 1 9 5 ESE 1029,2 12 0,0
21.02.2019 12:00:00 12,2 3,2 16,0 5,9 7,4 3 1 9 5 SSE 1029,9 10 0,0
21.02.2019 11:00:00 8,9 2,9 12,4 5,6 7,4 3 2 6 3 N 1030,2 9 0,0
21.02.2019 10:00:00 6,3 2,9 7,4 5,6 7,4 0 0 10 5 N 1030,5 7 0,0
21.02.2019 09:00:00 4,7 2,4 1,8 5,7 7,4 4 2 11 6 S 1030,3 7 0,0
21.02.2019 08:00:00 2,9 1,6 -0,2 5,9 7,4 6 3 10 5 S 1030,0 6 0,0
21.02.2019 07:00:00 2,6 1,1 -1,1 6,0 7,4 0 0 5 3 N 1029,4 6 0,0
21.02.2019 06:00:00 2,5 0,7 -0,6 6,2 7,4 3 2 11 6 SSE 1029,3 6 0,0
21.02.2019 05:00:00 3,3 1,3 0,4 6,4 7,4 9 5 10 5 SE 1028,8 7 0,0
21.02.2019 04:00:00 3,6 1,5 0,6 6,6 7,3 3 2 10 5 SE 1028,8 7 0,0
21.02.2019 03:00:00 4,2 1,9 1,3 6,8 7,3 5 3 10 6 SE 1028,5 8 0,0
21.02.2019 02:00:00 4,3 1,8 0,2 7,1 7,4 8 4 9 5 SE 1028,3 7 0,0
21.02.2019 01:00:00 5,0 2,2 0,7 7,3 7,4 8 5 9 5 SSE 1028,0 10 0,0
21.02.2019 00:00:00 5,9 2,5 0,8 7,6 7,3 4 2 10 5 SSW 1027,4 12 0,0
20.02.2019 23:00:00 6,4 2,3 1,9 7,8 7,3 5 3 7 4 S 1027,1 12 0,0
20.02.2019 22:00:00 7,3 3,0 2,3 8,1 7,3 0 0 3 2 N 1026,7 15 0,0
20.02.2019 21:00:00 7,9 3,0 2,9 8,4 7,3 0 0 3 2 N 1026,3 20 0,0
20.02.2019 20:00:00 9,2 3,2 3,4 8,6 7,3 0 0 4 2 N 1025,8 20 0,0
20.02.2019 19:00:00 11,1 2,9 4,9 8,8 7,3 0 0 5 3 N 1025,3 25 0,0
20.02.2019 18:00:00 13,2 3,3 9,8 8,7 7,3 3 2 7 4 N 1024,6 25 0,0
20.02.2019 17:00:00 14,1 3,2 18,9 8,5 7,3 6 3 12 6 N 1024,3 25 0,0
20.02.2019 16:00:00 14,0 3,2 18,9 8,1 7,3 4 2 10 5 ENE 1024,5 25 0,0
20.02.2019 15:00:00 13,7 3,5 17,6 7,6 7,3 3 1 12 7 S 1024,6 25 0,0
20.02.2019 14:00:00 12,9 4,1 17,0 6,9 7,3 2 1 14 8 N 1025,0 20 0,0
20.02.2019 13:00:00 12,8 4,2 16,0 6,3 7,3 3 2 9 5 SW 1025,2 15 0,0
20.02.2019 12:00:00 10,8 3,8 14,9 5,8 7,3 3 2 9 5 WSW 1025,7 15 0,0
20.02.2019 11:00:00 9,4 3,8 13,2 5,6 7,3 4 2 8 5 SE 1025,8 12 0,0
20.02.2019 10:00:00 6,7 2,8 7,7 5,5 7,3 5 3 13 7 SSE 1025,8 10 0,0
20.02.2019 09:00:00 4,0 1,9 2,2 5,6 7,3 6 3 16 9 SSE 1025,7 8 0,0
20.02.2019 08:00:00 2,7 1,1 0,9 5,8 7,3 13 7 16 9 SE 1025,2 7 0,0
20.02.2019 07:00:00 2,9 1,1 -0,1 5,9 7,2 13 7 15 8 SE 1024,7 8 0,0
20.02.2019 06:00:00 2,5 0,7 0,1 6,1 7,2 3 2 8 4 S 1024,7 9 0,0
20.02.2019 05:00:00 4,2 2,1 1,0 6,3 7,2 4 2 8 4 S 1024,3 9 0,0
20.02.2019 04:00:00 3,9 1,8 1,4 6,5 7,2 4 2 11 6 SSE 1024,2 10 0,0
20.02.2019 03:00:00 3,3 1,2 0,2 6,7 7,2 8 4 11 6 SSE 1024,4 10 0,0
20.02.2019 02:00:00 3,9 1,1 0,3 7,0 7,2 0 0 6 3 N 1024,3 12 0,0
20.02.2019 01:00:00 4,2 1,6 0,2 7,2 7,2 0 0 12 6 N 1023,9 13 0,0
20.02.2019 00:00:00 6,4 2,5 2,7 7,4 7,2 5 3 9 5 SSE 1023,5 16 0,0
19.02.2019 23:00:00 6,2 2,3 3,1 7,7 7,2 4 2 16 9 S 1023,5 20 0,0
19.02.2019 22:00:00 6,8 2,5 3,8 7,9 7,2 13 7 16 9 SE 1023,3 20 0,0
19.02.2019 21:00:00 8,0 1,6 2,8 8,2 7,2 6 3 7 4 SSE 1022,8 25 0,0
19.02.2019 20:00:00 8,6 1,7 3,2 8,4 7,2 0 0 5 3 N 1022,7 30 0,0
19.02.2019 19:00:00 10,5 1,8 4,2 8,6 7,2 3 2 5 3 SW 1021,9 40 0,0
19.02.2019 18:00:00 12,4 2,0 10,4 8,6 7,2 4 2 11 6 WSW 1021,4 50 0,0
19.02.2019 17:00:00 13,6 2,2 15,6 8,4 7,2 5 3 13 7 SSW 1021,3 50 0,0
19.02.2019 16:00:00 15,0 2,8 17,3 8,1 7,2 8 4 16 9 SW 1021,6 40 0,0
19.02.2019 15:00:00 14,5 2,4 17,2 7,5 7,2 8 4 22 12 S 1021,9 30 0,0
19.02.2019 14:00:00 13,9 4,7 16,0 6,9 7,2 8 4 15 8 SW 1022,7 30 0,0
19.02.2019 13:00:00 11,3 5,0 15,4 6,3 7,2 10 5 16 9 N 1023,6 20 0,0
19.02.2019 12:00:00 10,3 4,6 14,2 5,8 7,1 6 3 13 7 NNW 1024,3 20 0,0
19.02.2019 11:00:00 9,4 4,6 11,7 5,6 7,1 4 2 10 5 WSW 1024,3 15 0,0
19.02.2019 10:00:00 6,7 3,8 8,6 5,5 7,1 7 4 21 11 SW 1024,5 15 -
19.02.2019 09:00:00 5,1 2,4 3,1 5,6 7,1 16 9 21 11 SE 1024,4 15 0,0
19.02.2019 08:00:00 3,6 2,0 2,5 5,8 7,1 16 9 22 12 SE 1023,7 15 0,0
19.02.2019 07:00:00 3,8 2,2 0,7 5,9 7,1 14 8 17 9 SE 1023,4 10 0,0
19.02.2019 06:00:00 3,0 2,0 -1,8 6,1 7,1 3 2 9 5 SSE 1023,5 10 0,0
19.02.2019 05:00:00 2,9 1,3 -0,6 6,4 7,1 6 3 7 4 SSE 1023,4 15 0,0
19.02.2019 04:00:00 4,1 2,0 -0,2 6,6 7,1 3 1 15 8 SSE 1023,0 20 0,0
19.02.2019 03:00:00 5,1 2,8 3,2 6,7 7,1 12 7 16 9 SE 1022,9 25 0,0
19.02.2019 02:00:00 5,7 3,2 3,0 6,9 7,1 12 7 17 9 SE 1023,2 30 0,0
19.02.2019 01:00:00 6,6 3,0 4,2 7,1 7,1 10 6 19 10 SE 1023,3 30 0,0
19.02.2019 00:00:00 7,8 3,6 6,1 7,2 7,1 9 5 21 11 SE 1022,9 35 0,0
18.02.2019 23:00:00 8,5 3,9 7,0 7,4 7,1 11 6 29 16 SE 1022,8 35 0,0
18.02.2019 22:00:00 9,0 4,2 7,6 7,5 7,0 13 7 26 14 SSE 1022,5 35 0,0
18.02.2019 21:00:00 9,9 4,1 8,4 7,7 7,0 13 7 32 17 S 1022,0 40 0,0
18.02.2019 20:00:00 10,1 3,6 8,9 7,8 7,0 23 13 43 23 S 1021,5 40 0,0
18.02.2019 19:00:00 10,8 3,3 9,8 7,9 7,0 27 14 45 24 S 1021,3 40 0,0
18.02.2019 18:00:00 11,9 2,6 10,9 8,0 7,0 20 11 54 29 S 1020,9 40 0,0
18.02.2019 17:00:00 13,0 1,9 14,2 7,9 7,0 33 18 54 29 SSW 1020,7 40 0,0
18.02.2019 16:00:00 14,2 0,8 15,9 7,7 7,0 28 15 48 26 SSW 1020,6 40 0,0
18.02.2019 15:00:00 14,4 -0,5 16,1 7,4 7,0 32 18 49 26 SSW 1020,7 40 0,0
18.02.2019 14:00:00 14,1 1,0 15,4 7,0 7,0 26 14 46 25 SSW 1021,4 40 0,0
18.02.2019 13:00:00 13,3 1,9 15,2 6,6 7,0 33 18 52 28 S 1022,1 40 0,0
18.02.2019 12:00:00 12,4 1,7 14,4 6,3 7,0 29 16 48 26 S 1022,8 40 0,0
18.02.2019 11:00:00 11,0 3,5 13,0 6,1 7,0 27 15 42 23 S 1023,2 40 0,0
18.02.2019 10:00:00 9,6 4,0 11,3 6,0 7,0 27 14 45 24 S 1023,6 40 0,0
18.02.2019 09:00:00 8,1 4,1 5,5 6,1 7,0 16 8 32 18 SSE 1023,8 40 0,0
18.02.2019 08:00:00 6,5 3,5 4,7 6,2 6,9 13 7 29 16 SE 1023,7 30 0,0
18.02.2019 07:00:00 6,6 3,4 5,0 6,4 6,9 10 6 32 17 SE 1023,8 30 0,0
18.02.2019 06:00:00 7,0 3,4 5,6 6,5 6,9 15 8 31 17 SE 1023,7 30 0,0
18.02.2019 05:00:00 7,2 4,0 5,7 6,7 6,9 11 6 28 15 SE 1023,9 30 0,0
18.02.2019 04:00:00 7,3 4,3 5,6 6,8 6,9 14 7 37 20 SSE 1024,2 30 0,0
18.02.2019 03:00:00 8,6 4,4 7,3 6,9 6,9 24 13 42 23 SSE 1024,5 40 0,0
18.02.2019 02:00:00 8,9 4,5 7,7 7,0 6,9 22 12 50 27 S 1024,7 40 0,0
18.02.2019 01:00:00 9,2 4,6 8,1 7,1 6,9 26 14 45 24 S 1024,9 40 0,0
18.02.2019 00:00:00 9,5 5,1 8,5 7,2 6,9 28 15 49 26 S 1024,7 40 0,0
17.02.2019 23:00:00 10,5 4,2 9,2 7,3 6,9 18 10 36 19 SSE 1024,6 40 0,0

tt = Température de l'air
td = dewpoint
tt 5cm = Température de l'air 5cm
tt -20cm = Température de l'air -20cm
tt -100cm = Température de l'air -100cm
ff = Vitesse du vent
fx = gusts
dd = Direction du vent
ppp = reduced air pressure
vv = visibility
rr = Quantités de précipitations

stations d'obs. à proximité